Wind_Gust
15 17 15 15 16 18 17 13 14 18 21 23 24 23 30 23 27 32 25 17 11 20 20 18 20 24 26 28 32 28 25 22 19 9 14 24 20 26 25 23 21 24 24 23 20 20 20 18 20 20 20 20 19 19 19 21 21 21 20 19 19 18 18 18 17 17 16 15 16 16 17 16 17 17 16 16 16 16 16 18 18 19 18 18 18 19 18 18 18 17 18 17 17 17 16 16 15
18 17 16 14 16 15 16 16 23 19 22 25 26 23 26 27 24 22 24 19 19 20 16 25 33 36 33 31 26 31 27 25 21 27 22 23 24 24 22 22 22 22 23 22 21 20 19 20 19 19 19 20 20 20 20 21 21 20 20 19 18 18 18 17 17 17 15 15 16 16 17 16 16 16 16 16 15 15 14 16 19 18 17 17 18 18 17 17 17 16 16 17 16 16 16 14 14
18 17 19 16 18 19 20 20 27 18 21 25 24 30 24 28 28 21 26 19 20 14 18 22 23 21 22 21 25 25 18 19 25 26 24 20 24 19 21 23 21 21 21 22 22 20 18 20 17 18 19 19 19 20 20 20 20 20 20 19 18 18 17 17 17 16 15 14 15 16 16 17 16 16 17 17 16 15 15 15 18 18 17 17 17 17 16 16 16 16 15 16 16 16 16 14 13
17 18 20 15 21 19 17 18 21 23 24 24 28 26 25 23 20 28 27 16 12 6 14 23 27 26 31 32 31 25 21 20 21 21 29 19 20 21 23 21 19 20 20 21 20 19 18 20 18 18 18 18 19 19 20 20 20 19 19 18 18 17 17 16 16 15 14 14 15 14 15 16 16 16 17 18 16 15 15 16 17 18 17 17 16 15 14 12 13 14 15 15 15 16 16 15 13
18 18 19 19 18 19 23 24 23 22 27 24 25 26 23 16 22 24 21 12 12 9 15 30 32 27 31 24 21 28 20 19 18 20 28 20 20 22 21 19 19 20 20 21 22 20 19 21 17 17 18 18 18 18 19 19 18 18 18 18 17 17 16 16 14 13 14 15 14 14 16 16 17 17 17 18 17 16 17 17 16 18 16 16 15 13 11 10 10 11 13 14 15 15 14 14 13
18 19 17 18 22 19 24 21 23 26 24 25 26 26 14 15 18 18 15 8 14 8 19 17 26 24 24 23 24 22 19 18 20 18 27 20 23 22 18 16 19 19 20 19 22 19 21 19 17 17 17 18 18 18 18 18 18 17 17 17 16 17 16 15 13 14 16 15 14 15 16 16 17 18 17 18 17 17 17 17 16 15 15 15 14 13 12 11 11 11 12 14 15 14 13 12 10
18 17 20 18 24 22 21 21 25 25 25 25 29 29 29 20 19 8 11 8 12 11 21 25 35 29 30 26 28 28 22 23 21 23 20 23 20 17 16 18 18 22 23 22 20 21 23 17 17 17 17 18 18 18 17 16 17 16 16 16 16 17 16 14 12 14 15 14 14 16 17 17 18 18 17 18 18 17 17 16 15 15 15 15 14 14 13 13 12 13 13 15 14 13 11 11 7
19 21 16 20 21 22 24 24 26 25 26 27 24 29 25 16 17 8 11 8 14 17 20 22 25 35 26 17 23 19 26 25 23 24 25 22 18 16 16 17 25 23 22 19 19 20 22 17 16 16 17 17 18 18 18 17 16 15 15 15 15 15 15 15 14 12 12 14 15 16 17 16 17 17 17 17 16 16 17 16 15 15 14 14 14 14 14 13 12 12 13 14 13 13 11 9 7
19 21 17 22 23 24 23 25 25 26 28 30 30 28 14 16 10 9 9 11 9 12 18 23 28 31 28 26 24 21 25 21 24 22 23 21 17 14 14 19 23 22 21 22 22 23 21 17 16 17 17 18 17 18 18 18 16 15 15 16 15 13 12 14 14 13 13 11 13 16 17 16 16 16 14 15 16 14 14 15 14 14 14 14 14 13 12 12 12 13 13 13 13 13 10 7 8
20 20 19 24 18 23 23 24 25 23 28 28 27 28 24 20 14 8 14 13 11 11 19 17 23 31 27 29 25 16 21 19 22 21 20 18 14 13 15 19 23 26 23 23 21 23 19 21 18 17 16 17 17 17 16 15 16 15 15 15 12 12 12 13 12 12 14 14 13 15 16 15 14 14 14 15 15 13 13 13 13 13 13 14 13 12 12 11 11 12 12 12 13 12 10 8 9
24 23 19 22 21 22 23 22 24 22 23 24 27 30 19 14 11 18 12 18 12 13 23 32 33 32 28 23 23 19 18 19 17 18 16 15 14 17 23 23 24 23 24 20 20 21 22 21 23 18 17 16 15 15 14 15 14 12 13 13 12 12 13 13 13 12 14 15 15 15 16 14 14 12 12 14 15 13 12 11 11 12 12 13 12 11 11 11 10 11 11 11 12 11 9 8 8
22 21 22 22 21 22 21 24 22 23 23 22 29 19 17 12 9 15 12 18 17 14 18 24 29 33 25 26 18 18 18 17 17 16 16 14 17 22 22 24 24 23 22 21 22 21 21 20 19 20 17 16 16 17 16 15 15 15 14 14 14 13 13 13 13 13 15 15 14 14 15 15 14 13 11 11 12 13 12 11 10 10 11 11 11 10 10 10 10 10 10 11 11 10 8 7 7
24 18 21 22 22 22 23 24 23 23 24 23 20 16 18 17 16 12 13 18 14 16 20 27 33 24 21 21 22 18 19 17 16 16 18 17 18 24 23 24 24 25 24 22 24 23 21 19 21 19 18 21 18 17 17 18 16 15 15 14 15 15 15 14 14 13 14 15 14 13 13 13 13 12 11 11 11 11 11 9 9 9 10 10 10 10 9 9 9 9 10 11 11 10 8 7 7
24 21 21 24 19 23 24 23 23 18 20 14 16 18 17 11 8 13 17 16 15 18 21 35 32 32 24 25 19 19 19 17 19 16 18 18 21 29 29 25 22 23 21 22 25 24 20 19 18 19 19 17 15 18 17 19 17 15 15 15 16 13 13 13 12 11 14 14 13 13 12 13 12 11 10 9 9 8 8 7 7 8 8 8 8 8 9 9 8 9 9 10 10 10 8 7 8
23 19 22 23 23 19 21 28 20 18 18 20 21 22 15 13 13 16 20 17 22 22 26 30 28 25 24 24 20 22 23 19 18 18 18 19 28 30 27 20 20 18 20 25 26 24 21 19 20 17 15 17 18 15 13 17 18 17 16 16 16 15 14 14 14 13 16 15 13 13 12 12 11 11 10 9 8 7 7 6 5 6 7 7 7 7 7 7 8 8 9 9 9 10 8 7 9
22 21 23 21 22 21 21 23 18 21 19 18 21 15 13 14 15 15 18 21 21 32 28 30 23 17 25 17 25 25 24 21 19 20 20 25 29 27 26 21 25 26 22 24 19 18 16 19 17 17 16 17 15 16 17 15 16 17 17 17 16 15 15 15 15 15 14 13 12 12 11 11 10 9 10 9 9 7 7 6 6 5 5 6 6 6 6 6 7 9 9 9 9 9 9 6 8
17 20 20 20 22 21 21 22 16 26 16 17 12 15 14 20 16 16 19 28 31 24 31 31 29 27 26 29 30 27 24 19 21 19 20 24 28 26 23 25 24 24 20 22 19 15 14 18 19 15 16 17 18 18 18 17 17 17 14 15 15 15 15 15 15 15 12 10 10 10 9 9 9 9 11 11 11 9 6 4 9 6 4 5 5 4 5 6 7 8 8 9 9 9 8 7 7
17 22 20 20 21 23 21 23 15 16 14 17 9 13 16 15 19 22 26 29 29 26 29 28 30 30 29 29 27 26 22 23 21 20 20 22 24 24 20 20 19 20 18 17 16 11 12 13 14 14 16 16 17 18 16 16 15 16 13 12 11 12 12 12 12 11 12 10 9 10 9 10 10 11 10 11 12 11 9 9 7 7 5 4 4 4 5 6 8 9 9 9 10 9 10 6 6
21 20 22 24 21 24 24 17 20 28 16 15 15 11 15 18 17 21 23 25 25 29 26 26 28 25 26 24 24 22 22 20 19 18 21 21 22 21 20 21 23 16 17 13 11 13 12 8 9 11 9 8 10 9 12 14 15 10 12 14 12 10 11 11 8 11 11 12 10 11 11 8 11 9 8 12 9 11 11 11 8 8 6 5 5 4 5 7 9 9 10 9 9 11 10 7 7
21 20 23 26 24 23 23 15 15 13 16 13 15 16 14 14 24 24 23 21 27 27 27 24 28 21 23 22 20 20 20 18 16 17 18 19 21 20 22 18 17 12 14 14 14 13 10 10 9 11 10 9 11 10 11 11 10 9 10 14 13 11 11 13 12 9 10 10 10 10 9 5 7 6 10 16 13 11 11 8 8 8 8 7 7 6 5 6 7 9 9 9 7 8 10 10 11
20 26 25 25 25 24 21 12 13 11 10 16 14 11 13 17 17 24 18 20 20 25 27 30 28 27 24 22 20 18 19 18 16 15 19 21 21 17 20 17 16 15 16 15 12 16 15 11 12 12 10 10 11 10 10 10 8 9 7 7 10 10 11 11 9 7 6 10 10 7 6 6 7 6 9 7 8 10 11 8 7 6 4 5 7 7 6 9 7 9 10 9 9 10 12 14 11
17 23 24 29 23 22 24 20 13 10 10 13 11 14 15 10 15 13 16 17 15 23 23 29 28 27 25 23 19 17 18 16 15 17 19 22 23 21 22 15 14 16 16 16 14 13 14 14 13 14 10 9 10 9 9 9 10 9 8 8 9 9 11 8 8 7 5 5 6 7 6 6 4 5 7 8 4 6 11 10 10 9 7 8 7 9 8 8 9 9 10 10 11 10 12 14 11
25 19 23 24 24 20 19 17 14 11 12 16 10 16 17 14 9 21 25 28 34 35 35 28 25 25 25 23 20 17 16 14 15 22 23 21 20 19 17 17 17 17 16 16 16 16 14 14 14 13 13 10 11 9 9 9 9 8 9 8 10 10 9 9 7 5 5 4 10 10 7 5 7 4 5 5 6 5 8 9 11 10 9 10 8 10 10 9 11 11 10 10 9 12 13 14 12
22 24 18 21 21 19 17 13 13 12 21 17 17 17 12 15 17 19 24 28 33 31 27 27 25 24 23 23 15 18 14 13 17 19 21 20 20 20 19 19 14 14 15 17 16 15 16 15 15 14 14 12 9 9 9 9 8 8 8 8 7 10 10 8 7 6 4 10 13 12 9 7 6 7 6 6 4 3 5 6 7 7 9 11 11 13 12 11 10 12 10 10 11 13 13 14 11
24 29 21 19 16 22 12 14 12 13 18 19 11 11 18 15 20 21 24 28 32 26 27 26 25 22 20 19 16 14 15 20 20 21 18 17 19 19 14 15 15 15 16 15 16 14 15 14 13 12 13 12 10 10 10 9 9 9 8 8 8 9 9 7 7 8 7 9 10 8 11 7 5 6 5 5 5 5 5 3 7 9 9 9 10 15 14 12 11 12 12 11 11 13 11 12 10
25 22 21 20 19 15 20 15 11 14 11 12 17 15 18 20 15 18 29 29 33 28 26 25 25 22 21 19 17 14 20 19 20 21 19 17 20 22 16 15 15 15 15 16 17 15 15 14 15 14 13 14 12 10 10 10 10 11 10 10 11 13 8 6 6 8 6 7 9 9 11 11 6 5 5 5 7 8 8 9 4 8 9 9 10 14 16 13 11 12 11 11 11 12 11 11 9
19 25 22 21 18 15 14 16 14 13 15 17 19 19 19 19 16 22 29 31 30 27 27 25 23 21 19 18 16 15 20 20 20 20 18 16 16 18 17 13 13 14 14 15 14 16 14 14 14 14 13 11 11 11 9 11 10 11 10 10 14 11 8 8 11 8 8 7 11 15 14 11 7 8 6 5 7 8 8 9 9 8 10 11 12 11 12 13 9 13 13 11 12 12 11 9 8
21 12 15 23 22 17 15 16 18 17 22 18 20 20 18 13 20 23 31 30 29 27 27 25 24 21 19 16 15 15 17 19 19 18 18 15 16 17 16 16 14 14 13 14 13 14 18 15 16 12 13 12 11 10 9 9 10 10 10 14 13 12 7 8 9 10 11 10 11 9 11 12 12 9 5 6 7 8 9 10 9 9 11 10 9 8 8 9 8 11 12 11 11 12 8 5 4
19 17 19 17 20 30 18 20 20 19 24 18 18 20 22 20 25 26 27 29 30 27 26 24 23 23 20 17 16 16 18 17 20 16 13 14 14 15 17 13 15 14 13 11 13 15 15 14 15 14 13 9 9 8 9 9 8 8 10 12 12 12 8 6 7 8 7 8 9 9 9 10 11 10 10 11 8 7 8 9 10 10 7 7 7 5 8 8 8 7 7 8 8 7 6 4 7
18 20 16 17 20 25 21 15 20 21 21 19 19 26 22 22 22 27 28 31 29 27 26 22 19 21 20 17 17 19 22 21 18 13 15 13 14 15 16 14 12 12 14 12 14 14 12 9 10 10 10 10 8 8 8 9 8 8 10 10 10 10 10 10 8 9 8 9 8 8 9 11 11 10 12 13 10 10 8 8 10 11 11 8 6 6 7 7 8 9 8 5 6 9 6 5 6
28 20 18 22 21 26 23 24 20 22 18 20 22 24 20 20 25 29 24 30 29 31 28 24 21 19 19 19 20 21 22 16 15 14 13 11 12 13 15 13 12 12 11 12 14 14 12 11 10 9 9 8 7 7 8 9 8 9 8 9 9 9 10 11 12 11 9 9 9 10 10 12 12 10 11 12 9 9 8 9 8 9 9 7 6 6 5 7 5 8 10 10 7 7 7 6 6
22 25 26 22 24 20 26 27 23 26 25 24 24 27 20 24 25 25 24 29 32 32 32 28 24 20 18 20 20 20 18 14 14 13 11 12 11 14 12 12 12 11 11 12 12 13 13 11 12 10 10 10 12 13 9 9 8 8 9 9 8 9 10 13 11 9 11 11 11 12 11 14 14 12 11 12 15 14 11 11 9 7 7 8 8 7 6 10 10 8 8 8 10 9 8 7 6
25 26 19 25 23 24 24 30 25 27 27 24 26 26 26 25 26 23 22 32 30 31 30 27 22 21 22 22 21 19 18 15 14 12 13 10 12 15 11 11 12 13 14 13 12 12 11 11 14 14 12 11 13 12 10 12 12 8 8 10 9 11 11 10 12 10 12 13 10 11 11 13 14 13 12 14 14 13 11 11 8 8 6 7 7 8 9 9 8 8 8 7 7 9 9 8 8
25 26 25 20 23 25 27 30 27 27 27 25 26 31 25 20 28 28 27 33 30 29 29 26 22 22 22 21 22 20 19 18 16 13 10 10 15 12 10 12 11 12 12 14 14 14 12 10 10 10 11 12 11 14 14 14 16 16 17 15 15 15 14 13 11 13 13 11 11 11 11 11 12 12 13 13 12 11 11 11 10 9 7 7 7 8 9 7 8 7 9 7 6 6 6 6 6
22 22 22 24 22 23 23 34 30 28 29 22 26 30 29 21 25 27 32 35 29 29 33 28 24 23 23 21 20 21 18 17 14 12 12 13 12 12 11 10 11 10 10 10 11 12 11 11 10 9 11 10 11 11 11 11 14 14 17 18 18 17 16 11 11 12 11 11 12 12 13 14 13 13 12 12 12 12 12 11 10 10 10 9 8 8 8 8 8 9 10 9 6 6 4 4 4
23 22 23 24 22 25 34 26 29 30 29 25 26 30 29 31 22 25 24 31 28 30 27 24 24 24 23 23 20 20 19 14 12 12 17 19 16 13 10 9 10 10 9 8 10 12 12 10 7 8 7 9 10 11 11 9 12 13 14 13 16 14 12 15 14 12 11 12 12 12 12 12 13 12 11 13 14 13 12 13 12 10 9 10 11 10 10 9 10 9 10 9 9 7 5 5 5
20 22 22 25 26 21 26 25 29 30 28 27 26 23 30 28 27 26 22 19 26 33 25 24 23 24 23 23 22 21 16 13 15 17 14 14 15 15 9 9 9 9 9 8 10 10 11 12 9 9 6 6 6 6 6 7 7 7 11 15 14 17 17 18 16 12 12 13 11 13 14 13 13 11 10 10 13 13 12 11 10 11 11 11 12 12 11 11 10 9 9 9 10 9 8 6 6
28 21 21 23 26 23 23 27 33 33 25 26 26 24 29 26 26 27 23 23 31 31 27 25 26 24 25 24 23 21 15 10 11 10 9 10 11 9 8 7 7 10 7 8 7 8 9 12 11 10 8 6 7 7 7 6 4 6 5 5 5 7 9 11 13 13 13 12 11 10 11 11 12 12 11 9 10 11 11 11 11 11 13 13 13 11 9 10 10 10 10 10 10 12 14 10 8
28 28 21 22 25 25 20 23 35 32 28 25 25 27 26 23 28 24 20 26 28 30 29 27 27 26 24 22 22 23 15 14 10 10 12 11 12 8 7 5 7 6 8 7 8 9 9 9 9 8 7 8 7 5 6 7 5 5 4 5 7 7 6 5 4 6 6 8 11 10 11 12 13 12 11 10 10 10 10 11 12 11 11 12 13 14 12 12 12 12 12 14 10 9 9 7 10
26 25 24 23 21 23 22 25 35 28 29 21 23 26 25 18 23 22 22 30 29 29 29 28 26 28 27 24 25 26 21 17 15 14 14 11 9 8 7 5 8 8 9 7 7 9 8 8 7 8 7 6 7 8 8 7 8 7 5 5 5 6 9 8 8 6 6 6 11 13 12 11 11 13 12 11 10 9 11 14 12 12 13 13 14 14 14 15 13 13 12 12 11 10 13 10 10
25 26 24 20 24 24 25 27 32 25 22 21 21 24 26 20 25 23 19 26 31 32 30 26 27 28 28 27 29 29 26 20 16 11 8 7 7 5 4 5 6 7 7 7 7 8 9 8 9 9 6 7 8 7 8 7 6 5 6 6 6 6 8 9 8 9 9 9 9 7 12 8 9 8 8 10 12 16 15 16 15 14 13 13 14 14 14 16 14 13 13 13 14 16 13 13 11
25 23 24 21 24 23 29 20 25 24 25 28 22 27 30 17 22 27 23 30 26 27 28 27 26 25 26 27 26 27 28 22 18 14 12 10 9 6 4 5 7 9 9 9 10 6 6 8 6 5 6 4 7 8 9 8 8 7 7 7 5 6 7 7 10 9 8 9 11 8 10 12 8 11 9 12 15 15 13 14 13 13 13 14 14 15 14 13 14 15 17 16 16 14 14 10 13
23 27 26 28 25 23 25 25 24 27 29 28 28 26 24 23 21 22 27 27 22 21 28 30 28 26 22 22 24 26 31 30 22 18 17 12 10 7 6 7 8 11 9 9 10 10 11 9 7 5 3 4 5 4 4 5 4 5 7 7 7 7 9 10 7 6 9 10 9 8 7 14 8 10 13 12 15 15 14 13 14 15 15 15 15 14 15 15 15 16 14 14 17 15 13 16 14
29 15 24 25 27 28 27 32 27 22 20 20 29 35 27 29 26 25 24 24 28 31 30 30 32 23 21 20 24 27 28 25 22 17 14 12 11 9 11 9 9 11 9 10 9 9 10 8 7 8 7 7 4 3 2 2 4 4 4 4 5 7 8 10 9 9 6 6 6 7 8 14 11 12 13 14 14 17 15 15 14 14 15 15 15 16 16 14 12 12 15 16 14 15 16 18 15
25 20 23 25 26 24 25 32 25 21 21 25 29 29 33 24 26 27 28 27 28 28 30 27 27 28 23 21 20 20 21 20 19 18 18 15 14 11 9 9 8 9 9 9 7 6 6 6 5 6 6 6 5 5 5 6 6 6 7 7 8 7 8 9 9 9 9 8 7 6 7 11 14 13 13 13 16 14 14 15 14 14 14 15 14 14 15 14 15 16 16 15 15 17 17 17 14
24 23 20 24 25 26 24 26 26 19 20 23 28 31 33 25 24 30 28 27 29 28 24 24 29 23 21 22 20 19 17 18 20 19 18 18 15 12 9 8 7 8 8 8 7 5 5 4 5 4 4 5 4 5 6 5 5 6 6 7 9 10 10 11 10 12 11 9 9 8 8 8 10 10 13 13 12 14 14 16 16 16 15 14 15 15 16 16 17 17 17 16 16 14 15 15 18
18 29 23 24 25 22 23 24 31 24 24 27 25 30 29 27 26 29 30 32 28 25 27 27 25 22 20 20 19 21 19 21 19 19 18 17 15 12 9 10 8 9 10 11 10 8 3 5 5 4 4 9 10 9 11 10 8 7 7 7 8 10 10 11 12 13 13 12 12 11 9 8 4 8 11 11 11 15 16 16 15 15 15 14 14 13 18 19 17 16 17 17 19 21 19 17 15
26 32 28 23 20 21 23 24 21 24 26 23 26 28 31 30 19 25 22 24 37 39 34 31 28 24 22 19 19 18 16 16 18 18 19 18 17 14 11 11 10 10 12 13 10 9 10 10 13 10 11 11 11 10 11 12 10 10 10 8 8 8 7 9 11 12 12 14 14 15 13 10 5 6 9 13 16 13 14 17 18 17 18 15 17 15 16 16 15 16 14 17 19 19 18 18 17
31 29 28 28 25 24 28 25 28 27 23 24 30 27 33 34 20 26 24 28 29 34 38 36 31 26 25 21 18 18 18 17 16 16 16 17 16 12 11 10 9 10 11 11 12 10 10 11 12 12 11 11 11 11 13 12 11 11 11 11 9 9 10 9 10 11 11 13 12 13 13 14 9 10 7 10 12 17 13 17 17 16 15 15 17 18 16 15 16 15 15 16 16 16 16 14 16
31 33 28 29 34 29 21 23 18 24 28 23 27 26 29 19 14 31 33 27 36 38 32 31 29 29 26 22 21 20 16 16 16 16 16 16 14 12 11 10 9 9 11 12 11 12 10 10 11 12 11 11 12 13 13 12 11 11 10 11 12 12 11 11 11 12 11 12 13 13 13 12 11 11 10 11 10 11 15 12 14 16 16 15 14 15 16 15 15 15 15 16 16 19 17 16 18
33 27 32 26 31 36 24 27 27 25 23 28 22 27 26 18 10 20 32 30 28 32 35 28 26 27 24 23 23 21 18 16 17 17 17 15 13 11 10 8 8 9 10 10 9 9 9 11 14 12 12 12 11 11 11 12 14 12 11 12 12 12 13 13 11 11 12 12 13 14 13 12 11 11 12 12 11 11 12 16 17 14 15 14 15 16 17 17 16 13 14 15 15 14 16 19 15
30 31 27 28 30 21 27 19 19 22 25 20 21 15 18 19 16 16 24 30 30 32 31 29 25 23 23 21 21 19 18 17 17 17 16 14 12 12 10 9 10 9 9 9 8 9 9 11 10 10 10 10 11 12 12 12 13 13 13 13 14 13 13 13 12 12 13 12 14 14 15 13 11 11 14 13 11 11 13 15 11 12 13 17 18 13 13 12 12 13 13 13 14 14 16 19 19
30 32 35 30 20 23 12 14 19 6 8 28 18 15 19 19 19 16 22 31 31 29 29 28 25 23 22 20 20 20 17 17 16 16 15 13 12 12 11 10 9 8 7 8 8 8 10 10 10 11 11 12 13 12 11 11 12 12 12 13 14 15 16 14 16 16 15 14 15 13 12 13 14 13 15 11 12 11 11 12 12 12 16 16 12 10 16 14 14 15 15 13 15 14 14 18 16
29 37 31 25 24 24 20 20 18 19 19 25 16 23 19 18 17 13 13 26 26 27 25 25 24 22 21 19 18 18 16 15 16 15 13 14 12 13 11 9 10 9 8 8 10 8 9 8 9 11 12 12 12 11 11 11 13 12 12 13 14 15 16 16 15 15 13 14 13 12 11 13 13 13 13 14 12 12 12 13 13 11 14 14 15 16 17 17 14 13 13 12 13 16 14 12 13
29 32 20 37 25 26 22 18 20 23 24 22 24 26 27 24 23 24 22 24 25 25 25 23 23 22 21 20 21 18 16 16 15 14 14 14 12 12 11 10 10 10 9 9 10 10 11 10 10 9 10 9 9 11 10 10 11 11 12 12 12 12 14 15 15 14 12 13 12 11 11 12 14 13 13 13 13 13 12 14 14 10 9 16 15 9 11 13 10 9 10 10 9 13 16 14 15
33 23 34 26 21 21 18 23 15 25 20 19 17 22 22 24 28 29 31 28 27 27 24 21 21 21 21 20 20 19 15 13 14 15 14 14 12 11 9 9 10 9 8 10 10 10 11 10 9 8 8 9 11 12 12 12 11 13 14 12 13 16 15 16 15 15 15 13 13 13 13 12 14 14 12 12 13 13 13 13 11 12 13 12 14 12 14 13 8 8 10 8 8 8 12 13 16
36 33 31 32 29 15 25 21 30 24 23 24 17 16 17 13 28 31 30 32 30 29 26 22 22 21 20 17 16 15 14 13 14 14 14 13 12 10 9 9 11 10 10 9 7 8 9 9 8 10 11 12 12 11 11 12 13 14 14 14 13 12 13 15 15 16 14 14 12 12 13 11 12 13 12 13 13 14 14 12 12 12 11 10 13 8 11 6 7 9 8 7 7 7 8 8 9
31 33 30 29 30 29 29 27 31 34 28 23 24 21 17 17 15 25 35 31 31 29 28 25 22 21 18 16 14 14 14 13 13 12 12 12 11 10 9 10 9 9 9 7 9 9 8 9 9 9 11 12 11 13 13 14 14 14 15 15 15 15 17 17 15 15 15 15 14 13 13 13 13 14 13 13 14 13 12 11 10 8 9 10 7 8 7 8 9 11 6 8 10 11 11 13 9
Wind_Speed
6 5 5 4 3 4 3 1 1 1 1 5 4 3 7 5 9 10 14 6 2 4 4 12 11 9 10 10 16 12 10 4 1 2 4 3 8 15 15 14 14 14 16 11 10 10 11 14 16 16 15 15 14 14 14 16 14 14 14 14 14 14 13 13 14 14 13 12 11 13 14 13 14 13 12 13 13 13 13 14 14 14 14 14 14 15 14 13 14 13 13 12 12 11 10 10 8
5 5 4 4 4 1 2 1 0 3 1 4 8 4 14 7 6 10 13 3 3 1 11 13 18 21 22 19 15 16 14 10 7 7 8 11 13 12 14 13 13 15 12 12 10 10 9 11 15 15 15 15 15 14 15 15 14 13 13 13 13 13 13 13 13 14 12 11 12 13 14 13 13 13 13 13 12 12 11 13 14 14 14 14 14 14 13 12 12 12 12 12 11 10 10 9 9
4 5 7 5 2 2 3 1 2 3 4 7 7 9 8 4 5 3 10 4 4 7 13 14 15 12 12 11 12 7 2 7 12 10 9 12 13 8 12 13 14 14 13 10 11 10 8 10 14 15 15 15 15 14 15 14 14 13 13 12 12 12 13 12 13 13 12 11 12 13 13 14 13 13 13 13 12 12 11 12 14 14 14 13 13 13 12 11 10 11 11 11 10 9 9 9 7
3 3 2 3 3 2 1 1 3 3 5 5 6 10 8 5 2 3 3 3 4 3 5 10 12 3 17 16 12 14 10 6 7 11 8 6 8 11 12 14 13 12 11 11 11 10 8 13 14 14 14 15 15 14 14 14 13 12 12 12 12 12 13 12 11 11 11 11 11 12 12 13 13 13 13 13 12 12 12 13 14 14 13 13 13 12 10 9 9 9 9 10 10 9 9 9 6
3 3 3 1 0 1 2 2 3 3 8 3 7 11 8 5 6 3 2 1 4 3 10 11 11 9 13 11 3 3 5 10 9 5 6 9 11 12 13 13 12 12 12 12 11 10 10 16 14 14 14 15 15 14 14 14 13 12 11 11 12 13 13 12 10 11 11 11 11 12 13 13 14 14 14 13 12 13 13 13 12 13 13 12 12 10 9 7 7 8 9 9 9 8 8 7 5
4 4 3 2 2 1 2 3 4 8 7 4 5 10 6 2 3 2 2 5 4 5 13 8 10 7 8 7 4 5 11 7 8 6 11 10 14 14 13 11 11 11 13 12 12 9 10 15 14 14 14 15 15 15 14 14 13 11 11 11 11 13 12 11 10 12 12 11 12 12 13 13 14 14 14 14 14 13 13 11 10 11 12 12 11 10 9 7 7 8 9 9 8 7 6 5 4
2 1 1 1 4 1 3 3 7 5 7 8 9 12 13 7 6 2 4 2 4 9 15 13 19 15 11 3 11 9 9 12 8 8 11 14 14 11 11 11 12 14 13 11 11 11 13 14 14 14 14 15 15 15 14 13 13 11 11 11 11 12 12 10 10 12 12 11 12 13 13 13 13 14 13 14 14 12 11 10 11 11 12 11 11 10 9 9 9 10 9 7 6 5 5 3 3
3 0 2 2 2 2 3 5 7 5 5 7 8 12 7 9 5 2 0 3 2 3 11 9 11 16 10 8 9 8 12 10 13 17 16 13 12 11 11 11 15 13 13 12 11 11 16 14 13 13 14 14 15 15 15 14 13 11 11 11 12 11 11 13 11 10 10 11 12 13 14 13 13 13 13 13 13 12 10 10 10 11 11 11 11 11 10 9 9 8 7 6 5 4 4 4 3
2 4 2 2 3 2 2 6 8 7 9 11 13 18 5 1 2 2 2 3 1 4 12 13 14 13 5 13 9 9 10 13 15 15 14 13 12 10 8 13 14 12 13 12 11 11 10 14 13 14 14 15 14 15 14 14 12 12 12 13 12 10 10 12 11 10 11 9 11 13 13 13 13 12 11 12 12 10 11 9 8 10 11 11 11 10 10 9 8 8 7 6 4 4 4 5 6
2 4 2 2 2 5 5 5 6 10 13 16 16 17 11 6 5 3 2 2 2 2 7 9 14 16 13 15 10 7 9 12 13 14 11 11 9 9 10 13 16 16 13 12 10 11 9 16 15 14 13 14 14 13 13 12 12 12 12 13 10 10 9 11 10 10 12 11 10 12 13 12 11 10 10 12 12 11 10 9 8 9 10 11 10 9 9 8 8 8 6 5 4 5 5 6 7
3 3 2 1 3 5 6 7 7 9 12 10 14 18 3 4 4 2 0 0 2 2 15 21 15 16 14 9 6 6 12 13 12 11 9 9 10 12 15 14 14 15 14 12 11 11 11 11 18 15 14 13 12 12 12 12 11 10 10 10 10 10 11 11 10 10 12 12 12 13 13 12 11 9 10 11 12 11 10 9 8 8 9 10 9 9 8 8 7 8 6 5 4 4 5 5 6
3 4 3 3 4 5 6 7 10 10 10 11 10 12 5 6 4 2 2 3 2 4 9 9 6 16 12 9 4 8 10 11 10 10 9 9 11 15 14 13 14 12 13 13 13 12 11 11 10 14 14 14 13 14 13 13 12 12 12 12 12 11 11 11 11 11 13 12 11 12 12 12 12 10 8 9 10 10 9 8 8 8 8 8 8 8 8 8 7 6 5 4 4 4 4 5 5
6 3 3 2 3 4 9 9 10 10 7 7 12 5 7 7 3 2 1 0 3 8 3 16 17 10 5 5 4 8 10 8 10 11 10 10 12 14 14 14 12 11 11 13 12 11 9 8 8 10 12 17 15 14 14 15 14 13 12 12 13 12 12 11 11 11 12 12 11 10 11 11 11 10 9 9 9 9 8 7 7 7 8 8 7 7 7 7 6 5 5 4 3 3 5 5 5
5 4 2 4 4 6 7 7 7 5 8 7 2 4 4 3 2 6 4 3 10 6 12 15 13 20 13 9 5 6 8 9 12 10 10 11 13 18 17 10 10 11 10 10 9 9 7 7 6 7 10 9 8 13 14 15 14 13 12 11 11 10 10 10 9 10 12 11 11 10 10 10 9 8 8 8 8 7 6 6 6 6 6 6 6 5 6 6 6 5 4 4 3 2 4 5 7
6 3 2 4 4 3 4 7 8 8 7 3 1 6 4 4 8 4 2 5 12 11 13 12 7 13 9 13 6 9 9 12 12 12 12 13 20 16 12 7 8 8 8 10 9 10 9 8 7 6 5 5 6 5 5 10 14 12 11 11 12 10 9 11 11 11 13 12 11 11 10 9 8 7 7 7 6 6 6 5 4 5 5 5 5 5 4 5 6 5 4 4 3 2 2 5 7
5 2 3 3 6 5 6 6 6 7 5 2 1 7 8 1 6 5 1 13 6 9 5 4 4 0 15 10 15 14 13 12 12 13 13 18 18 13 9 6 4 6 7 6 8 9 9 8 7 6 5 6 5 5 5 5 10 11 11 12 12 12 11 12 13 12 11 10 10 10 9 6 6 4 6 4 6 5 5 4 4 4 4 4 4 4 4 3 5 5 5 4 4 3 3 4 6
4 3 2 3 7 5 5 4 4 7 2 3 1 2 3 3 2 3 13 16 16 9 14 8 6 6 12 12 20 18 13 13 14 13 14 15 13 9 6 5 5 6 5 2 3 8 9 8 8 5 5 5 5 5 4 5 7 11 9 11 12 12 11 12 12 12 9 8 8 8 7 4 3 3 3 2 5 1 2 2 5 4 3 3 3 2 3 3 4 5 5 4 4 4 4 5 6
3 4 3 6 6 9 8 6 3 1 2 0 2 4 3 3 4 4 17 18 15 15 16 11 19 15 17 17 18 16 14 16 14 14 12 13 11 8 6 4 6 5 5 3 1 4 7 6 6 6 6 5 6 6 5 4 5 8 5 5 5 8 9 10 8 5 7 3 6 6 4 4 4 3 3 5 2 2 2 4 4 4 2 2 2 2 2 3 4 5 5 5 4 4 4 2 3
4 2 3 8 6 10 5 6 5 1 2 3 4 4 5 3 11 4 12 14 15 16 13 16 18 15 16 15 15 15 15 14 13 12 14 15 12 11 8 5 5 7 6 3 3 4 5 5 5 7 6 5 7 6 6 6 6 5 5 5 5 6 6 5 5 5 4 4 4 4 3 1 3 4 4 4 5 6 3 4 5 5 4 3 2 1 2 3 4 5 5 5 4 5 3 3 3
4 2 6 9 8 8 9 8 4 3 5 3 6 2 1 2 6 4 12 14 16 16 14 12 17 14 14 13 12 14 14 13 11 12 13 13 11 10 9 8 6 6 6 5 4 3 3 4 5 6 6 6 7 6 6 6 6 5 5 4 5 5 5 5 5 5 5 5 5 5 4 2 2 1 5 11 10 6 5 6 6 6 6 5 4 3 3 3 4 5 5 5 4 3 3 4 4
3 5 6 7 6 9 11 6 4 2 6 4 5 4 3 4 3 7 13 11 8 12 17 20 17 18 16 14 13 11 13 12 11 11 13 13 10 7 8 9 7 5 5 5 3 3 3 4 4 5 6 7 7 6 6 6 5 5 4 5 4 5 5 5 5 3 3 6 5 4 3 2 2 2 1 2 5 5 5 5 4 4 3 3 5 3 3 3 3 2 2 3 3 4 4 5 4
1 10 12 10 6 7 13 13 7 2 2 2 3 9 6 5 2 0 4 10 7 8 9 16 18 17 17 15 12 10 12 10 11 11 13 13 12 9 8 7 6 5 6 6 5 3 3 3 5 4 5 6 7 5 5 5 6 5 5 5 5 5 5 4 4 3 3 3 3 3 2 2 2 3 1 1 2 3 5 5 5 5 4 5 4 5 4 4 4 4 4 4 4 4 5 5 5
7 5 6 9 9 10 11 10 2 7 3 3 4 2 4 6 2 12 13 12 9 12 15 17 17 16 15 13 12 11 10 10 11 15 14 13 12 10 9 8 9 8 6 5 5 3 3 3 4 5 6 6 7 6 5 5 5 4 4 5 6 5 4 4 4 2 2 3 3 1 2 1 2 1 0 0 1 2 5 5 5 5 5 5 5 5 5 5 6 5 5 5 5 4 6 6 6
6 6 4 8 9 11 11 4 7 7 5 4 3 4 3 5 2 10 14 13 15 14 15 17 16 15 15 14 10 12 9 10 12 13 13 13 13 13 11 10 7 7 7 7 5 5 4 5 5 5 6 6 6 6 5 5 4 4 4 4 4 5 4 4 4 2 2 4 3 1 1 0 1 0 1 2 3 0 2 2 2 4 5 5 5 5 6 5 6 6 6 5 5 5 6 6 6
7 7 5 8 5 6 8 1 4 3 4 6 6 5 5 6 2 13 13 15 16 15 15 16 15 13 11 12 11 8 11 14 13 12 10 9 10 11 8 7 7 7 8 7 6 6 4 5 5 6 6 6 6 6 5 5 4 3 3 4 3 5 3 3 3 3 1 1 2 3 2 1 1 1 3 3 2 2 1 1 1 2 2 4 3 5 6 6 6 7 7 6 6 6 6 6 6
7 5 4 5 8 7 6 5 7 4 1 5 4 2 8 7 5 9 14 14 16 15 14 15 14 12 11 10 10 9 14 13 14 12 11 9 10 12 9 8 8 8 8 8 7 6 5 5 5 6 6 6 6 5 6 5 5 4 5 3 4 3 2 2 3 2 1 3 1 2 3 2 1 2 3 3 2 4 4 3 2 3 4 4 3 4 4 5 5 6 6 6 6 6 6 7 6
9 14 11 7 9 8 2 2 3 4 2 3 2 2 5 8 2 6 9 14 16 17 15 12 13 12 10 9 8 11 14 14 13 11 10 9 9 10 9 8 8 8 8 9 7 6 6 6 5 6 5 6 5 5 6 6 6 5 3 3 3 3 2 2 3 2 1 2 1 1 2 2 2 2 2 3 4 4 5 4 4 4 5 5 4 4 4 5 5 5 6 6 7 6 7 5 5
7 4 3 10 11 8 2 4 2 2 0 1 3 7 5 6 3 11 11 15 17 17 16 13 12 11 10 9 9 10 11 12 11 11 10 8 7 8 8 8 8 8 8 9 7 6 6 5 6 6 6 6 5 4 5 5 6 5 3 4 3 4 4 5 4 4 3 2 2 3 3 4 3 4 3 3 4 5 4 4 4 4 5 4 4 4 5 4 4 6 7 7 7 7 5 4 2
6 5 8 4 3 6 7 4 4 4 2 6 5 6 6 3 10 16 14 15 17 18 16 14 12 12 11 9 10 10 11 11 11 8 6 6 4 7 9 8 9 8 5 7 8 8 6 5 6 6 5 6 5 4 5 5 4 3 4 3 4 3 3 3 5 5 4 5 5 6 5 6 5 6 6 5 3 2 2 3 4 4 4 3 3 3 4 5 4 2 3 5 5 4 4 2 1
5 5 3 5 7 5 4 5 3 5 3 9 5 5 7 4 6 13 18 17 18 17 14 12 10 10 10 10 11 11 11 12 9 6 7 6 4 8 10 8 8 7 6 6 8 8 5 4 4 5 5 5 4 4 5 5 5 5 4 3 3 3 3 3 4 4 5 5 4 4 4 3 4 6 5 4 3 3 3 4 4 4 4 2 2 4 5 4 3 1 2 1 3 5 4 3 2
4 5 2 2 1 2 3 5 5 6 5 10 6 4 6 6 10 8 17 20 19 17 16 13 12 10 9 11 11 10 9 8 6 6 4 7 2 6 10 8 8 6 6 7 9 8 6 5 5 4 5 5 5 5 5 5 5 5 4 4 4 4 5 5 5 3 3 3 4 4 4 3 4 5 4 4 3 3 4 5 4 4 4 4 4 4 3 4 3 2 0 1 2 0 3 4 3
3 3 5 1 4 2 5 9 6 8 4 9 8 4 7 7 10 6 15 19 18 17 15 14 13 10 10 12 11 10 8 6 5 8 8 7 4 1 6 8 8 8 7 8 8 8 8 5 5 5 5 5 4 4 4 5 5 5 5 5 5 4 4 4 4 4 4 4 4 5 4 5 5 6 6 6 5 5 5 6 5 4 4 4 5 4 3 5 6 3 1 1 1 1 1 2 4
4 7 2 4 6 7 6 8 8 13 4 6 7 4 5 6 12 8 12 21 19 17 15 14 14 14 14 12 11 10 9 7 6 8 9 7 5 2 6 5 7 9 9 9 8 8 7 6 6 6 6 6 6 4 4 4 4 5 5 5 4 3 4 4 3 3 5 5 5 6 6 6 6 7 7 6 5 6 6 6 5 4 3 3 4 5 6 6 5 4 2 0 1 1 2 2 3
6 4 5 3 5 6 8 5 11 11 10 4 8 7 5 5 8 7 18 18 18 15 15 14 12 13 14 12 12 11 9 8 10 7 7 4 4 4 5 7 8 8 8 10 10 9 8 6 6 6 6 6 6 6 5 5 4 3 4 5 4 5 5 5 4 4 4 5 5 6 6 6 6 5 5 5 5 4 4 4 5 4 3 4 5 5 6 4 3 3 3 2 2 1 0 2 3
5 3 5 6 6 7 8 7 9 10 13 8 9 10 11 9 3 12 21 19 18 17 15 14 15 14 14 12 11 11 8 7 9 8 6 3 2 3 4 7 7 7 6 7 8 7 7 7 7 6 7 6 6 6 6 6 6 5 3 4 3 3 2 3 3 4 5 4 4 4 4 5 6 6 5 5 5 5 4 5 5 4 3 4 5 5 5 4 3 3 4 3 1 2 2 2 1
9 6 9 8 6 8 9 7 12 15 10 11 9 12 13 12 2 3 17 19 18 17 13 13 14 14 14 13 12 9 8 8 6 6 7 8 0 8 3 4 6 6 6 5 7 8 8 6 4 4 5 6 7 7 7 5 3 4 3 1 1 2 3 4 5 5 4 4 4 4 4 5 5 6 6 6 6 5 5 5 6 4 4 4 5 5 5 5 5 4 5 4 4 3 3 3 2
11 9 9 10 10 11 11 6 15 13 8 12 10 12 12 8 5 5 8 11 16 15 14 13 13 12 12 12 11 11 9 7 5 5 4 8 7 4 5 3 6 6 6 5 7 7 7 7 6 6 4 4 4 3 2 3 4 3 2 3 4 4 4 4 4 4 4 5 5 5 5 6 6 6 6 6 6 6 6 5 5 5 4 5 5 6 5 5 4 5 4 4 5 4 4 4 3
12 9 5 7 11 11 13 6 17 13 7 9 7 10 12 9 8 9 5 15 19 15 14 13 13 12 12 14 13 11 8 5 7 5 5 6 7 5 4 3 5 7 4 5 5 5 6 8 7 6 4 4 5 4 3 2 1 3 2 2 1 3 5 5 6 6 7 6 6 6 6 6 6 6 6 5 5 6 5 5 5 5 5 6 6 5 4 5 5 5 4 3 4 6 5 6 4
9 6 7 6 7 12 12 6 20 14 11 7 10 7 9 12 7 10 7 17 14 18 19 17 17 14 11 11 12 11 9 9 6 7 7 6 7 5 4 3 4 4 6 5 5 6 6 6 5 5 4 5 4 3 4 3 2 2 2 0 1 1 0 2 2 3 3 4 6 6 7 7 8 7 6 5 4 5 6 6 6 6 5 5 5 6 6 6 6 7 6 6 4 3 4 3 6
7 6 6 7 10 7 7 4 22 12 8 5 10 11 8 6 6 13 12 17 13 18 18 15 17 18 15 14 13 12 11 10 10 9 9 7 4 4 3 3 5 5 6 5 5 6 5 5 5 5 4 4 5 4 5 4 4 4 3 3 3 2 2 2 3 3 2 3 6 7 6 3 2 3 1 2 3 6 7 8 7 7 7 6 7 7 7 8 7 7 6 7 5 5 4 5 6
8 9 5 8 11 10 7 8 16 13 9 3 7 6 5 3 6 6 8 14 18 18 17 14 11 13 14 12 11 12 13 10 10 7 5 5 4 3 3 3 4 5 4 5 5 5 5 5 6 6 4 4 4 4 5 4 3 2 2 1 0 1 2 2 3 4 4 4 3 4 6 1 2 2 3 4 8 9 9 8 8 7 7 7 6 7 7 8 8 7 8 7 8 8 7 4 5
6 6 10 13 15 13 5 8 11 5 3 4 8 4 6 2 11 11 11 11 13 16 17 15 13 13 13 13 12 8 8 5 7 6 5 3 3 1 3 3 5 6 6 5 6 4 4 5 4 4 4 3 4 5 6 5 4 4 4 4 2 2 3 2 5 5 5 5 6 4 2 3 1 1 4 8 8 8 6 6 6 6 6 6 6 7 7 6 8 9 9 8 8 8 7 6 5
5 7 7 14 16 13 8 3 3 6 7 9 4 7 3 1 9 9 14 15 14 12 16 16 15 13 11 11 9 8 8 7 6 6 5 4 2 2 3 4 5 7 6 6 6 6 7 6 4 3 2 2 3 3 3 3 3 3 4 4 3 3 1 2 2 3 5 5 5 5 2 6 3 6 8 6 5 7 3 4 3 4 5 6 6 7 8 9 8 8 7 8 9 8 7 8 8
6 4 9 12 12 13 9 5 4 4 4 3 4 6 2 1 4 6 17 15 16 16 15 15 13 13 11 10 10 8 7 6 4 7 6 3 3 3 5 5 6 6 5 6 5 6 6 5 4 4 3 4 3 2 1 1 1 1 2 1 1 0 1 1 2 4 3 3 3 4 2 6 6 7 8 4 3 3 4 2 4 6 8 8 7 7 9 8 7 6 8 9 8 7 8 9 8
3 7 12 7 7 10 6 8 6 10 7 3 5 4 2 1 4 7 13 17 17 16 16 14 14 12 11 9 7 9 10 7 6 8 7 6 6 5 5 6 4 5 6 6 4 4 4 4 3 2 4 3 3 3 3 3 3 2 2 1 2 1 1 0 1 1 3 3 4 4 2 6 6 8 8 5 0 4 5 4 5 7 8 8 7 7 8 8 9 9 8 7 7 7 7 9 7
6 10 10 7 7 5 6 4 0 6 6 6 6 4 2 2 3 4 10 16 15 15 15 14 14 13 13 12 10 10 9 9 8 10 8 7 7 6 5 4 5 4 4 5 5 4 3 3 3 3 0 1 1 3 3 2 2 2 2 1 1 1 0 1 0 2 3 3 3 4 4 2 6 6 6 3 4 4 2 1 4 8 7 7 7 9 10 10 10 10 10 10 10 8 7 8 9
5 12 12 7 8 4 3 4 1 2 5 7 8 7 6 2 5 8 8 10 15 13 11 12 13 13 13 13 12 9 6 7 8 9 8 7 6 6 6 6 6 6 6 7 6 5 3 3 4 3 3 6 6 6 7 7 5 5 3 3 3 3 3 2 2 3 3 3 3 4 4 4 2 4 4 4 5 5 6 8 8 8 9 8 7 7 9 10 10 9 8 6 8 10 10 10 9
6 7 7 6 9 1 1 2 3 2 2 4 7 5 8 6 3 5 3 7 25 23 22 19 16 16 14 12 11 9 7 7 8 9 8 8 8 7 7 7 6 6 7 8 7 6 6 6 8 6 7 7 7 6 7 7 6 6 6 5 5 5 4 3 3 3 3 3 3 4 4 4 3 3 3 4 4 6 6 6 6 7 6 4 6 7 7 7 5 6 6 7 10 11 11 10 10
8 5 4 7 2 2 4 1 1 2 4 4 5 7 3 6 2 9 5 6 12 19 21 21 20 17 15 13 12 9 9 10 9 8 6 5 6 6 6 6 6 6 7 7 8 6 6 7 7 8 7 7 7 7 9 8 7 7 6 6 5 5 6 6 4 5 4 4 5 5 5 6 5 5 4 5 5 4 5 6 6 6 4 7 9 9 9 8 9 8 8 8 6 8 8 7 8
9 10 5 5 4 4 3 1 2 1 4 5 10 9 4 3 3 9 5 13 15 16 15 16 18 17 15 14 13 11 9 9 9 8 8 7 6 6 5 5 5 5 7 7 7 7 6 6 6 7 7 8 8 8 8 7 7 6 6 6 6 6 6 5 5 5 6 5 4 4 4 4 5 6 6 6 6 5 4 5 5 5 5 6 8 7 7 7 7 7 9 9 8 9 9 10 11
8 7 6 6 2 3 4 2 4 5 6 6 8 6 3 2 1 7 8 16 16 15 16 15 14 14 14 13 13 12 10 9 8 8 8 7 6 5 5 5 5 5 6 6 6 5 5 7 8 8 8 7 7 6 6 7 7 6 5 5 5 5 5 5 5 4 4 3 3 4 4 4 5 6 7 7 6 6 6 6 4 6 6 5 4 5 5 6 8 7 7 8 8 7 9 11 7
4 4 5 4 8 3 5 4 3 3 4 5 2 2 2 5 4 5 8 14 17 17 17 18 16 13 13 13 12 10 10 9 8 9 9 8 6 6 5 5 5 5 6 6 6 6 6 7 6 6 5 5 6 6 5 5 5 4 4 5 6 5 4 4 5 5 5 3 3 3 4 4 4 5 6 6 7 6 7 6 5 4 5 5 5 6 6 6 5 5 7 7 8 6 8 11 11
5 2 6 7 3 2 1 1 4 3 1 1 3 6 5 6 9 8 9 11 11 11 14 15 16 14 12 12 10 10 10 9 7 8 8 8 6 6 5 5 5 5 5 5 4 3 5 5 5 5 5 4 6 5 5 3 4 4 5 5 5 6 6 6 5 6 6 4 4 4 4 5 4 5 6 5 6 6 6 6 5 6 7 5 6 5 5 4 4 5 7 7 8 7 8 11 9
3 8 5 2 4 4 5 4 1 2 3 1 4 8 7 6 3 4 6 9 9 10 12 13 13 13 13 10 10 9 9 9 9 8 8 8 6 6 5 4 4 3 3 4 5 5 6 5 4 4 4 4 5 5 4 4 4 4 5 6 6 6 5 5 5 6 5 5 5 5 5 6 6 7 6 6 7 7 6 6 6 6 6 6 4 4 5 6 6 6 6 5 6 6 8 4 4
6 6 5 5 5 10 2 4 5 5 3 1 1 10 10 9 9 10 11 10 13 11 11 12 12 11 11 10 10 10 9 9 9 8 8 8 7 5 5 5 4 5 6 6 6 5 4 2 2 2 3 3 4 4 4 6 7 6 6 7 7 7 6 5 5 5 4 5 6 6 6 6 7 7 7 8 8 7 7 6 5 6 5 5 5 4 3 3 3 2 3 1 2 3 3 5 7
9 4 4 9 1 3 3 4 3 7 2 4 1 2 2 3 8 16 19 17 17 14 11 11 12 12 11 9 9 9 8 7 7 7 8 8 6 4 4 4 5 4 4 5 4 3 2 2 2 3 4 5 6 8 7 7 6 6 6 5 5 5 5 6 6 5 5 6 5 6 6 7 8 7 7 7 7 8 8 7 6 6 6 6 5 3 1 3 3 1 1 2 0 1 2 5 8
6 5 4 4 4 3 4 1 4 5 4 5 5 1 2 3 3 9 7 11 13 14 14 13 12 12 11 10 9 9 8 6 7 7 8 6 4 3 4 4 3 2 3 3 3 2 0 1 2 3 5 6 8 7 7 6 5 5 5 6 7 7 8 8 8 7 7 7 7 6 7 6 6 8 7 8 8 8 8 7 7 6 4 4 2 2 1 1 4 3 3 1 2 3 2 3 5
7 5 6 7 7 5 10 5 1 3 4 3 6 3 1 2 5 4 10 11 11 11 13 13 14 12 11 9 8 9 8 8 7 7 7 4 3 3 3 3 1 1 3 3 3 2 2 2 3 6 7 7 6 6 5 3 3 5 6 7 8 9 10 9 9 9 9 9 8 7 8 8 8 8 8 8 8 7 7 7 6 5 4 2 2 4 3 3 4 7 4 2 1 0 0 2 3
Wind_Direction
303 302 280 269 248 255 337 252 47 286 105 241 242 278 256 230 249 274 264 304 128 295 44 65 71 58 93 116 109 85 33 73 332 159 197 112 113 104 108 112 109 107 115 115 116 115 116 120 121 119 120 118 118 119 116 112 111 110 109 108 108 107 106 104 105 106 104 103 98 93 90 92 90 87 85 86 89 94 96 98 99 98 95 93 92 90 90 88 87 85 84 86 87 89 90 93 97
303 303 284 254 259 280 300 162 154 309 312 280 248 245 255 269 285 276 283 98 118 104 78 83 82 90 99 110 116 90 50 48 62 98 86 107 106 101 111 107 111 110 113 116 116 115 114 120 119 119 118 118 120 118 114 112 111 110 110 109 109 110 108 105 106 107 106 102 97 92 92 92 93 90 88 89 90 89 89 93 94 94 92 91 89 87 86 86 86 85 86 86 86 89 94 100 101
330 345 333 310 234 209 281 328 246 211 216 249 267 237 269 285 300 42 74 69 85 98 78 83 92 90 95 85 47 68 107 82 91 83 94 116 103 117 113 109 106 110 115 115 116 113 115 116 116 117 117 118 118 115 113 111 110 110 110 110 111 112 110 106 104 109 107 102 97 92 95 96 95 95 93 92 91 89 91 92 91 86 84 82 82 86 85 85 86 86 88 89 90 90 96 106 104
321 268 250 341 329 113 299 302 177 199 235 227 277 268 272 294 274 335 8 37 359 48 92 60 70 38 88 74 91 83 111 111 97 115 122 117 112 126 112 112 116 116 112 115 111 111 115 119 115 116 115 115 115 114 112 111 110 110 112 111 114 116 113 108 103 109 109 101 96 97 100 100 100 97 97 96 97 95 90 89 89 86 78 72 72 69 69 73 80 85 89 90 91 95 98 103 103
313 272 203 252 244 271 166 205 205 176 234 220 244 270 267 258 227 210 167 120 32 46 94 104 85 43 72 94 116 113 130 122 119 109 94 96 117 117 118 120 121 119 113 109 107 111 117 116 116 115 116 116 114 113 112 111 112 114 115 116 119 119 115 110 106 110 107 100 100 103 101 102 103 101 100 99 100 102 98 95 90 87 83 79 76 73 67 62 73 80 79 82 86 91 99 104 101
256 286 242 154 203 235 343 284 239 230 226 212 239 257 262 257 95 83 71 72 60 37 98 102 117 119 68 51 16 103 134 126 127 88 106 122 121 124 121 120 119 109 107 105 108 110 116 114 115 116 114 114 115 115 115 117 118 120 120 121 122 121 115 111 113 113 105 101 102 103 104 104 105 103 104 104 105 104 100 95 91 88 85 83 79 77 75 73 80 79 74 71 77 86 92 100 92
285 9 301 150 281 266 200 230 249 242 245 227 241 264 263 275 197 199 62 55 344 57 93 103 109 96 88 133 53 33 82 113 114 115 111 128 124 120 121 118 100 103 105 107 110 113 117 114 118 117 118 117 118 121 124 124 127 126 127 127 126 121 116 116 114 110 105 102 106 107 105 104 107 108 107 110 108 104 99 93 89 86 82 82 82 78 73 70 76 73 71 74 77 83 82 80 71
252 59 256 122 253 149 243 245 260 259 265 254 257 254 263 98 312 39 49 93 265 90 101 105 90 83 57 63 101 55 63 74 99 105 118 118 116 113 118 107 106 108 109 110 111 115 121 118 121 121 121 124 128 130 131 133 134 132 130 130 128 120 117 116 103 101 103 106 111 111 111 111 111 113 112 110 111 107 103 93 86 88 85 82 83 83 81 81 81 87 87 83 74 65 60 55 46
261 167 263 344 265 260 234 229 241 242 261 260 265 264 251 262 144 154 38 332 45 102 121 124 108 86 112 77 72 94 84 91 96 104 107 109 108 114 107 109 112 106 102 107 112 114 119 127 126 128 130 133 134 136 135 138 136 133 131 131 128 120 119 117 103 100 100 103 113 114 113 115 116 116 117 115 115 112 103 94 88 89 86 84 86 88 86 89 94 92 87 78 62 47 31 28 27
265 180 265 187 177 238 246 257 226 236 233 236 241 252 255 245 182 119 87 328 56 343 127 94 93 109 118 99 103 91 108 106 101 97 101 104 104 100 89 98 104 105 106 110 117 120 131 135 135 137 137 137 138 137 139 138 136 132 132 131 124 125 121 108 103 104 105 103 107 114 115 113 113 116 119 119 113 109 105 94 91 87 82 84 85 87 87 86 92 93 88 77 56 41 24 17 16
264 201 211 280 256 261 235 256 247 251 242 245 235 238 172 152 131 90 131 6 330 49 92 100 89 114 107 89 83 99 107 107 106 107 104 98 93 90 93 95 100 107 112 119 130 134 142 143 143 141 140 138 137 137 136 136 130 126 126 124 125 130 123 121 119 116 117 114 115 111 113 110 112 111 118 120 117 116 111 98 91 88 85 84 88 89 89 84 85 85 82 78 54 34 24 8 9
262 241 143 209 243 215 248 244 249 259 258 254 255 230 182 134 128 101 153 138 230 184 146 115 138 112 80 116 113 104 101 105 110 108 102 91 88 95 96 94 94 100 118 135 143 144 147 144 138 140 138 139 140 141 140 136 131 132 134 135 139 139 134 131 127 119 122 119 120 116 119 120 117 108 102 112 118 115 113 104 95 91 90 88 90 96 97 96 87 90 93 77 57 33 6 5 355
222 235 224 193 221 225 253 264 263 264 270 249 240 155 157 127 134 169 76 144 311 184 189 109 131 98 119 102 120 104 104 115 110 110 101 99 97 91 87 87 95 117 142 146 141 133 126 128 141 149 151 148 147 147 143 139 139 141 145 150 150 144 142 133 122 115 116 115 115 114 118 121 119 119 109 113 117 119 109 107 100 97 95 92 89 96 103 105 104 102 102 91 69 29 2 342 342
210 209 191 249 242 234 241 251 268 290 277 262 268 132 94 108 108 84 46 15 343 80 107 125 116 103 101 112 116 115 122 121 117 107 106 100 88 78 82 90 129 153 152 128 110 111 124 142 152 148 149 145 145 147 143 142 142 145 147 147 140 135 130 122 112 105 110 112 114 116 121 122 122 119 110 110 113 106 111 111 109 99 96 93 92 92 102 110 121 114 107 106 98 41 347 323 321
227 228 236 229 264 291 247 246 255 262 268 302 349 121 120 113 103 84 154 79 59 99 102 94 134 99 185 142 157 150 142 132 121 111 105 88 79 84 88 131 193 151 116 109 121 136 152 156 145 141 133 128 129 123 126 141 143 139 134 121 113 108 110 116 110 110 117 122 125 120 125 125 121 117 111 113 108 115 127 114 104 106 98 95 88 91 104 116 121 131 129 124 121 109 320 306 314
211 235 223 251 258 242 266 258 263 264 271 197 42 99 83 79 98 122 263 103 77 1 69 55 358 187 153 148 143 139 138 130 119 116 111 97 89 89 110 164 139 70 69 101 144 155 157 150 145 142 138 137 126 107 111 122 140 134 122 118 116 114 117 119 117 117 122 127 127 125 126 129 128 126 123 124 131 127 140 129 107 110 94 99 89 95 109 138 135 141 146 155 156 168 235 285 293
218 199 275 276 272 256 255 256 262 272 235 313 330 106 112 162 149 96 85 103 83 58 53 36 52 88 134 126 128 131 128 116 118 118 114 107 105 109 129 188 100 75 87 93 158 149 150 145 144 135 137 139 126 115 108 115 131 124 119 121 121 119 124 126 127 125 125 133 131 133 127 124 135 145 144 145 154 146 144 92 140 115 121 103 114 126 132 144 160 150 160 174 190 194 215 253 274
196 213 205 257 237 251 242 248 279 286 63 283 296 185 57 152 136 153 87 82 99 86 75 63 68 73 97 111 118 123 121 120 124 125 125 120 114 120 164 116 70 113 139 146 100 92 121 123 142 132 142 143 127 123 124 116 118 112 110 120 125 124 129 133 129 131 131 127 140 142 149 166 167 161 169 173 158 181 155 157 150 148 152 150 110 141 157 173 175 172 174 179 214 224 238 259 286
196 208 178 227 230 250 278 271 299 316 282 286 357 97 158 214 166 151 110 113 107 93 91 90 83 87 93 102 117 120 120 121 128 129 133 126 131 146 148 110 137 139 138 148 146 113 107 120 133 134 134 124 121 126 126 128 121 126 131 133 132 127 133 128 138 137 133 151 156 164 164 178 170 176 179 188 172 169 164 165 174 179 181 193 181 166 194 206 194 190 188 192 207 247 254 277 274
220 179 213 235 241 270 284 292 298 14 5 24 13 328 21 219 160 134 124 131 121 120 118 103 115 117 115 121 121 126 127 129 136 141 126 126 134 139 131 142 154 148 145 148 145 96 83 109 123 129 118 103 96 106 124 134 142 143 143 137 129 138 144 154 158 159 163 173 177 164 172 136 112 95 208 206 184 165 162 172 187 194 197 201 205 192 216 212 218 207 203 198 206 251 261 267 270
181 217 221 235 238 252 266 290 243 57 19 355 349 334 307 197 176 157 130 124 124 140 145 141 142 136 135 136 135 135 135 140 141 133 124 131 133 137 141 147 158 147 133 119 110 121 103 111 110 103 107 102 97 102 116 137 129 124 131 132 144 158 163 161 172 155 163 176 176 152 145 147 122 125 109 62 155 157 164 179 186 188 199 217 204 182 193 190 190 211 202 207 207 231 258 257 266
199 206 229 250 287 302 294 288 302 133 126 2 332 36 307 316 36 107 175 131 144 134 135 124 128 135 134 137 135 135 142 145 145 117 132 136 138 139 134 129 108 112 128 138 145 124 118 107 107 112 105 98 100 101 114 125 115 119 118 141 159 170 163 151 140 143 143 117 110 106 129 117 112 100 69 84 121 161 171 176 195 198 189 205 198 205 195 186 175 197 205 206 219 222 239 256 252
235 257 239 233 237 249 262 288 37 38 11 321 21 309 299 2 86 88 78 106 125 123 123 121 122 125 129 131 137 141 145 152 118 130 132 130 133 138 140 138 142 145 148 141 134 129 132 115 116 114 105 101 99 102 97 102 114 124 136 154 159 164 121 121 122 134 153 104 83 37 53 71 100 102 126 191 227 180 189 185 193 205 211 203 198 195 209 195 180 193 203 213 210 218 234 238 244
204 244 236 241 223 237 259 62 10 42 1 304 322 333 347 330 46 84 87 103 110 113 114 115 119 126 128 130 142 148 152 110 112 129 134 137 139 146 148 144 146 138 130 134 135 139 155 142 137 117 116 110 110 114 111 109 114 130 162 173 140 130 111 126 129 165 124 113 128 134 80 43 101 211 228 207 248 170 149 170 199 218 230 219 206 191 204 208 190 190 199 209 209 217 231 240 239
217 243 264 275 272 242 243 265 83 56 279 290 314 351 298 284 75 102 115 118 121 123 121 118 121 123 127 131 143 132 96 108 120 119 116 123 128 129 130 132 136 133 133 138 138 144 163 140 140 128 129 119 125 127 119 116 121 142 186 180 107 107 130 146 147 173 144 100 131 120 114 70 50 215 215 219 197 243 192 166 182 232 252 260 243 219 211 213 195 191 196 205 203 215 227 246 251
210 241 235 254 266 266 242 187 157 151 275 223 262 259 297 288 355 102 124 128 125 123 118 120 121 122 127 127 131 113 111 112 117 117 121 118 123 123 128 137 139 138 139 137 142 151 153 149 144 134 137 133 141 128 131 138 151 173 201 148 96 119 169 126 102 115 97 116 189 172 128 140 215 204 216 219 223 257 231 197 202 230 238 244 254 258 249 246 224 200 193 199 207 211 220 229 246
187 215 224 234 252 263 295 291 185 145 239 101 258 223 249 278 222 114 133 130 128 122 118 117 121 124 124 125 112 110 111 118 117 115 104 117 123 125 132 134 138 138 136 138 149 153 150 152 145 137 143 138 141 132 142 157 162 174 186 94 120 134 189 127 121 126 109 101 205 212 126 172 237 247 236 209 199 220 239 221 221 225 232 229 217 247 250 245 257 235 206 196 204 210 213 216 218
269 232 232 236 254 266 277 260 252 100 50 322 194 248 238 249 224 146 145 143 132 123 123 126 126 125 128 126 114 104 103 110 107 102 109 120 131 134 136 139 137 138 144 147 146 146 147 149 146 149 148 141 144 149 152 162 163 171 144 131 145 160 165 159 155 158 175 156 201 230 193 172 209 250 237 240 201 200 221 224 219 213 235 242 220 232 259 260 241 235 227 203 201 203 191 174 198
286 288 270 275 270 248 256 253 227 132 204 214 224 257 259 197 200 143 152 143 132 127 127 132 131 128 129 119 106 91 73 67 78 89 96 303 155 133 129 134 136 137 143 139 138 139 150 155 140 149 142 135 149 173 150 144 132 119 147 170 166 160 163 144 158 169 174 179 190 204 209 175 185 212 224 228 238 227 252 253 241 221 215 224 231 236 261 275 257 276 255 221 175 157 164 189 128
319 296 201 226 255 262 227 261 214 149 216 200 196 229 259 245 201 148 152 142 133 126 127 129 130 130 123 114 93 87 98 103 118 126 150 161 172 135 129 135 134 135 138 128 133 145 150 148 138 139 148 143 148 122 117 128 133 127 146 160 155 153 161 190 221 192 173 175 181 192 211 230 198 202 222 233 226 242 256 252 232 221 210 212 229 235 254 268 276 329 327 28 166 157 186 204 176
264 284 284 195 141 270 211 232 176 187 183 206 178 201 268 231 215 168 154 140 135 129 133 135 130 127 123 101 100 100 103 115 130 130 97 98 298 127 125 124 129 129 124 130 143 145 136 133 137 138 141 141 128 119 122 133 137 135 140 148 164 181 188 200 206 208 191 183 179 205 194 199 241 247 232 211 224 229 243 254 249 210 191 195 197 220 241 287 282 248 59 30 44 207 199 184 184
242 272 269 303 189 270 246 211 171 200 210 196 176 226 235 232 215 171 152 134 130 129 136 135 133 137 120 107 104 106 112 115 112 100 91 52 344 326 96 128 139 139 138 137 128 125 126 138 134 135 140 143 133 148 147 144 149 147 152 162 179 203 211 212 199 193 192 188 189 205 204 195 207 227 231 209 191 206 228 236 235 218 194 187 196 198 180 234 270 276 253 101 32 16 251 222 174
243 191 212 237 169 235 269 210 187 206 217 187 177 209 239 266 213 174 137 137 134 135 138 136 137 128 110 109 108 113 117 125 120 105 110 128 166 211 130 146 134 135 132 131 131 134 143 149 146 145 156 155 156 163 158 149 152 147 155 162 176 202 226 245 229 196 194 188 188 190 201 205 207 214 225 229 221 198 205 222 228 220 211 188 193 199 203 205 202 235 276 139 115 335 341 306 242
264 183 221 210 196 203 241 205 193 197 215 197 197 229 227 236 227 161 136 136 137 137 141 142 133 121 119 118 120 125 129 128 118 111 100 156 221 178 157 122 120 119 122 125 134 139 146 143 149 161 167 165 158 166 169 163 173 171 180 160 177 193 211 224 215 203 218 211 190 192 190 202 219 224 220 223 236 243 232 233 236 220 195 189 199 203 219 203 193 189 234 235 172 157 97 28 342
224 208 201 253 261 222 207 173 184 195 206 218 196 216 243 249 305 159 141 147 146 145 147 141 126 124 120 121 125 129 125 109 93 90 95 16 313 158 126 116 113 113 115 121 124 130 121 120 130 137 144 158 165 167 169 172 174 178 180 170 177 202 252 251 230 217 225 223 213 203 186 193 204 215 226 220 223 233 236 242 248 236 199 207 202 204 211 207 200 193 205 232 169 172 174 132 128
235 193 185 210 230 245 235 196 175 191 186 213 197 201 231 247 275 284 146 150 147 145 136 128 124 126 127 131 134 126 112 90 87 100 118 119 47 301 103 105 107 110 111 110 108 119 124 126 123 118 129 138 146 164 171 173 165 162 162 153 303 248 226 217 221 217 220 226 227 218 207 201 203 208 213 215 220 227 226 222 233 245 231 218 221 216 215 208 208 209 218 207 209 201 185 159 152
244 226 190 206 222 251 254 197 171 189 176 210 197 199 224 233 225 227 180 139 136 135 130 133 129 131 130 132 125 114 107 112 107 110 121 112 105 298 314 90 106 112 117 119 119 129 132 130 115 115 131 127 136 139 128 141 170 180 176 186 202 217 220 229 246 236 216 222 217 216 218 216 209 210 209 201 210 221 227 227 218 227 219 220 224 229 226 220 213 209 214 198 210 212 208 165 166
251 267 277 234 208 235 243 203 169 185 179 217 195 191 214 220 224 192 195 115 142 129 123 122 123 124 130 128 121 115 117 99 105 108 124 116 118 179 241 120 113 112 123 125 133 135 127 132 134 143 144 132 116 137 150 131 155 161 152 179 174 190 213 210 222 225 218 211 210 211 217 217 218 217 216 209 208 205 217 228 226 226 215 220 226 232 234 229 221 214 188 213 208 205 216 176 170
260 252 251 275 254 234 242 199 171 186 186 213 195 189 214 221 189 179 156 136 142 141 138 144 132 131 130 125 119 118 117 123 127 130 134 138 154 181 156 123 105 125 129 126 124 113 109 113 120 138 149 144 141 122 104 113 79 82 97 187 101 307 267 154 178 233 245 224 214 217 210 210 209 210 208 209 209 209 216 217 222 218 221 220 226 229 226 231 224 219 203 205 209 218 212 178 172
245 253 261 252 259 251 243 181 174 180 180 194 180 204 239 249 180 173 147 141 141 129 127 133 137 142 139 136 132 128 129 142 144 145 141 150 136 142 142 127 136 151 119 125 127 136 129 121 129 130 136 127 129 133 135 150 154 166 161 172 196 172 221 270 305 287 275 196 213 218 231 226 280 248 279 262 230 213 208 210 215 212 218 214 219 225 222 226 221 221 210 209 191 210 203 213 178
242 239 237 252 261 258 213 175 170 170 212 138 140 182 258 222 148 153 136 136 135 126 123 118 119 120 122 118 123 138 146 151 146 128 101 96 90 99 110 142 103 106 118 120 134 129 128 132 132 145 152 147 152 153 146 153 147 159 197 219 176 337 336 330 323 326 306 285 264 227 227 321 341 360 15 280 247 221 207 207 207 213 216 216 216 226 228 227 223 218 210 207 203 209 211 190 187
249 233 226 244 258 271 263 158 142 150 240 249 141 169 244 242 167 145 135 126 130 127 124 123 125 125 127 129 136 142 143 128 123 111 114 104 102 62 40 80 94 83 66 57 48 71 104 128 143 129 133 129 146 164 162 154 170 177 186 180 179 188 226 251 246 241 248 245 239 241 170 48 40 320 220 219 240 245 225 215 212 216 217 218 222 229 236 236 229 222 215 212 218 214 209 187 188
208 245 226 243 253 264 293 172 104 161 172 228 126 137 250 186 159 141 140 141 137 118 124 129 131 135 130 128 134 147 140 101 93 101 99 85 86 80 75 65 72 75 63 56 48 47 46 43 37 67 87 140 156 152 156 155 157 194 188 185 179 171 192 247 224 219 220 234 242 239 168 97 307 242 231 224 228 239 248 267 280 247 223 218 222 233 236 232 229 225 217 213 219 214 201 211 198
240 242 236 238 246 263 264 265 210 192 216 205 145 131 139 137 214 167 138 122 120 123 126 134 134 133 132 133 143 137 94 78 88 91 87 90 85 93 96 80 74 77 78 63 52 42 38 23 28 36 51 52 26 100 85 150 140 119 96 105 155 183 168 249 303 310 316 303 287 270 139 133 191 255 266 261 258 310 304 270 246 244 233 216 212 223 234 235 232 227 218 215 216 214 211 213 199
220 245 251 248 236 248 266 278 223 176 138 215 206 171 114 250 259 167 119 114 129 133 136 134 125 121 122 124 114 95 99 103 103 106 107 102 92 85 75 73 71 80 79 76 72 51 37 16 11 19 36 23 36 58 72 64 90 99 76 88 50 53 98 298 277 288 315 315 324 305 280 157 195 229 240 245 18 276 267 277 274 257 247 235 218 220 230 231 233 229 221 215 214 223 220 222 200
222 250 262 263 259 248 252 267 355 145 128 190 213 175 139 242 211 185 145 136 144 146 140 126 116 120 121 116 101 99 103 111 110 108 107 98 95 85 79 75 61 59 70 76 57 44 27 343 319 319 256 351 20 59 63 67 90 97 84 82 89 305 253 286 336 312 302 298 297 297 299 245 194 220 228 215 211 231 284 271 271 278 277 268 245 227 227 223 220 225 220 213 211 205 231 224 212
160 225 252 275 261 243 266 258 171 40 165 221 192 178 167 217 229 167 162 169 145 134 111 114 114 112 111 111 116 119 118 114 111 101 93 90 83 80 71 63 54 51 54 55 41 33 351 325 318 1 33 45 44 35 31 22 13 24 12 355 348 323 299 289 335 316 298 307 298 296 294 293 250 222 216 224 204 199 220 232 226 231 244 255 265 253 242 236 227 223 214 198 211 209 218 218 214
179 211 222 267 310 317 236 294 55 137 282 245 177 176 165 208 274 250 277 165 143 143 140 137 130 125 125 122 121 129 130 114 99 92 89 91 83 72 68 64 55 55 54 46 42 40 31 27 27 27 36 34 30 32 29 20 24 23 26 23 19 11 7 2 348 329 314 316 313 314 314 329 321 270 254 246 234 216 225 228 215 221 229 257 264 270 274 278 298 277 241 209 214 213 217 216 211
205 217 167 171 275 147 248 67 295 149 199 242 166 182 163 203 108 287 281 135 139 137 139 139 132 125 119 119 126 125 114 111 106 103 97 78 78 73 67 58 50 53 53 44 39 37 27 28 27 30 24 25 20 26 23 18 21 21 17 16 16 12 10 2 353 347 328 337 339 344 352 344 328 321 303 291 276 243 235 248 246 233 213 215 234 224 237 233 236 230 229 226 194 204 209 215 219
197 209 159 153 188 195 205 249 145 266 225 189 183 181 223 130 39 331 79 113 121 117 117 118 120 122 119 115 112 113 112 112 109 103 93 81 72 75 72 68 67 56 54 50 41 33 21 25 24 31 23 22 26 29 28 25 16 12 13 17 17 13 8 2 351 357 350 346 352 349 345 330 323 311 307 296 281 271 254 246 255 255 241 230 227 226 238 251 249 235 228 224 199 204 201 200 216
200 205 167 162 161 159 185 156 166 195 215 188 173 159 294 43 313 7 74 105 98 100 105 105 103 107 108 108 108 105 106 102 105 103 99 94 86 80 69 68 66 64 63 56 45 34 22 23 21 25 27 23 25 27 29 22 13 6 9 16 17 11 3 356 343 341 344 350 356 352 334 331 331 317 307 295 295 283 270 269 250 253 256 246 227 242 229 236 250 249 235 230 230 201 190 195 205
217 184 161 188 223 130 152 188 152 206 177 173 76 85 10 64 307 34 55 86 97 106 110 112 109 111 111 109 110 111 107 110 110 108 101 92 89 78 67 59 55 54 56 53 44 37 31 34 26 19 22 20 22 25 25 29 13 3 4 13 5 356 353 353 347 344 336 352 356 348 332 328 316 306 302 301 297 290 282 276 260 258 261 232 215 228 240 228 225 237 231 222 221 204 195 194 204
221 160 203 205 183 192 155 200 158 104 59 85 134 116 68 121 50 58 84 87 93 100 108 111 119 117 112 111 113 116 118 116 117 111 109 107 94 85 85 78 64 62 68 70 64 54 56 45 27 13 5 14 31 25 17 18 10 9 2 9 355 351 352 355 348 339 338 344 357 340 329 314 305 305 303 300 299 296 289 282 289 283 270 231 203 196 225 242 232 233 236 231 224 213 208 201 191
136 207 217 237 218 191 131 184 187 132 154 223 125 135 157 162 169 195 103 99 106 111 113 113 111 114 111 115 117 120 122 124 121 113 106 101 95 94 87 72 71 74 80 74 57 49 50 35 20 352 345 27 41 34 5 358 10 11 6 5 355 353 348 346 342 338 342 349 351 347 336 333 333 321 313 307 303 299 295 296 292 282 269 259 241 227 243 262 258 246 233 239 249 222 215 177 161
170 213 143 202 185 237 259 106 178 160 193 149 63 157 168 179 156 160 150 150 133 121 115 112 111 107 110 112 112 109 108 106 98 93 92 82 77 77 83 89 78 70 66 68 62 57 49 24 319 332 19 44 52 28 11 21 24 21 10 3 357 351 344 340 337 338 352 5 354 352 347 337 325 324 319 318 317 314 312 307 288 277 268 249 245 239 226 222 222 227 208 194 236 279 229 189 193
246 294 235 203 156 193 141 190 164 124 187 174 151 185 216 205 183 178 163 160 145 133 127 119 113 116 114 113 110 104 96 92 91 91 84 84 76 57 59 69 65 68 78 80 77 73 48 309 319 38 45 46 41 35 35 30 19 19 357 353 351 343 344 346 343 349 4 4 356 353 348 343 334 323 324 324 326 326 324 320 306 287 280 267 247 250 278 275 228 170 261 277 324 83 4 210 132
240 222 255 225 202 194 154 223 174 161 165 170 136 284 260 357 180 178 156 141 139 135 129 124 121 121 120 119 121 119 108 101 101 93 92 91 88 70 68 68 71 113 120 111 127 137 220 23 60 61 67 51 46 46 38 30 10 357 4 5 0 357 2 358 358 7 11 2 1 357 355 338 328 338 333 336 335 333 330 326 309 302 306 323 255 225 251 27 85 101 105 36 52 38 80 24 84
208 179 207 219 197 168 196 272 181 141 120 173 122 212 260 310 4 192 131 126 119 114 113 118 122 123 121 123 118 110 106 101 101 97 97 116 128 115 103 111 202 98 99 106 100 71 20 356 39 63 61 56 54 45 41 15 357 4 14 19 23 22 18 15 19 18 18 17 9 6 2 351 350 341 339 338 338 335 334 326 316 326 333 343 20 59 60 60 62 73 58 346 6 54 186 167 124